Tracking 32523 objects as of 13-Dec-2025
HD Live streaming from Space Station
objects crossing your sky now

SL-12 DEB

Track SL-12 DEB now!
10-day predictions


NORAD ID: 24833
Int'l Code: 1997-028F
Perigee: 1,210.4 km
Apogee: 3,057.9 km
Inclination: 63.3 °
Period: 130.1 minutes
Semi major axis: 8505 km
RCS: 0.8365 m2 (medium)
Launch date: June 6, 1997
Source: Commonwealth of Independent States (former USSR) (CIS)
Launch site: TYURATAM MISSILE AND SPACE COMPLEX (TTMTR)

Note: This is SATELLITE DEBRIS
Your satellite tracking list
Your tracking list is empty




NASA's NSSDC Master Catalog

Two Line Element Set (TLE):
1 24833U 97028F   25346.99172226 -.00000070  00000-0 -26263-3 0  9995
2 24833  63.3191 224.0523 1086089  46.6641  44.6460 11.06830765152405
Source of the keplerian elements: AFSPC